"Pseudo-MPEC" for C2YMPL2

Created 2020 Aug 12 2:07:05 UT using Find_Orb

Click here for an explanation of pseudo-MPECs

 
 Astrometry: 
     C2YMPL2  C2020 07 30.42800 23 29 44.81 +06 16 39.5    ~7UBM 22.8 GVNEOCPG96
     C2YMPL2  C2020 07 30.43523 23 29 45.13 +06 16 47.5    ~7UBM 21.8 GVNEOCPG96
     C2YMPL2  C2020 07 30.44244 23 29 45.54 +06 16 54.4    ~7UBM 21.5 GVNEOCPG96
     C2YMPL2  C2020 07 30.44965 23 29 45.83 +06 17 01.1    ~7UBM 22.8 GVNEOCPG96

Station data:
(G96) Mt. Lemmon Survey  (N32.442754 W110.788720)  US/Arizona.  Observers T.
   A. Pruyne, B. M. Africano, E. J. Christensen, G. A. Farneth, D. C. Fuls,
   A. R. Gibbs, A. D. Grauer, H. Gröller, J. A. Johnson, R. A. Kowalski, S.
   M. Larson, G. J. Leonard, D. Rankin, R. L. Seaman, F. C. Shelly. 1.5-m
   reflector + 10K CCD.

Orbital elements:  C2YMPL2
   Perihelion 2020 Aug 18.309627 +/- 42.2 TT =  7:25:51 (JD 2459079.809627)
Epoch 2020 Jul 30.0 TT = JDT 2459060.5   Earth MOID: 0.4490   AutoNEOCP
M 354.22186119 +/- 39               (J2000 ecliptic)
n   0.29923617 +/- 0.409            Peri.   57.45582 +/- 80
a   2.21374021 +/- 2.02             Node   279.25365 +/- 60
e   0.3444703 +/- 0.263             Incl.    4.85689 +/- 28
P   3.29                   H 21.6   G  0.15   U 12.1  SR
q 1.45117226 +/- 0.568    Q 2.97630817 +/- 45835
From 4 observations 2020 July 30 (31.2 min); mean residual 0".35
Residuals in arcseconds: 
200730 G96  .05+  .36-    200730 G96  .58+  .18+    
200730 G96  .36-  .45+    200730 G96  .26-  .28-    

Ephemerides (geocentric):
Date (UTC) HH   RA              Dec         delta   r     elong  mag " sig PA
---- -- -- --  -------------   -----------  ------ ------ -----  --- ---- ---
2020 08 12 02  23 38 13.910   +09 28 47.12  .52388 1.4521 139.5 22.2  71d   2
2020 08 12 03  23 38 15.000   +09 29 20.81  .52373 1.4521 139.5 22.2  71d   2
2020 08 12 04  23 38 16.086   +09 29 54.48  .52359 1.4521 139.6 22.2  71d   3
2020 08 12 05  23 38 17.169   +09 30 28.11  .52345 1.4521 139.6 22.2  71d   3
2020 08 12 06  23 38 18.247   +09 31 01.70  .52331 1.4521 139.6 22.2  71d   3
2020 08 12 07  23 38 19.321   +09 31 35.27  .52317 1.4520 139.6 22.2  71d   3
2020 08 12 08  23 38 20.392   +09 32 08.80  .52303 1.4520 139.7 22.2  71d   3
2020 08 12 09  23 38 21.458   +09 32 42.30  .52289 1.4520 139.7 22.2  71d   3
2020 08 12 10  23 38 22.520   +09 33 15.77  .52275 1.4520 139.7 22.2  71d   3
2020 08 12 11  23 38 23.579   +09 33 49.20  .52261 1.4520 139.8 22.2  71d   3
2020 08 12 12  23 38 24.633   +09 34 22.60  .52247 1.4520 139.8 22.2  71d   3
2020 08 12 13  23 38 25.684   +09 34 55.96  .52233 1.4520 139.8 22.2  71d   3
2020 08 12 14  23 38 26.730   +09 35 29.30  .52219 1.4520 139.8 22.2  71d   3
2020 08 12 15  23 38 27.772   +09 36 02.60  .52205 1.4520 139.9 22.2  71d   3
2020 08 12 16  23 38 28.811   +09 36 35.86  .52191 1.4519 139.9 22.2  72d   3
2020 08 12 17  23 38 29.845   +09 37 09.10  .52177 1.4519 139.9 22.2  72d   3
2020 08 12 18  23 38 30.876   +09 37 42.30  .52163 1.4519 140.0 22.2  72d   3
2020 08 12 19  23 38 31.902   +09 38 15.46  .52149 1.4519 140.0 22.2  72d   3
2020 08 12 20  23 38 32.925   +09 38 48.60  .52135 1.4519 140.0 22.2  72d   3
2020 08 12 21  23 38 33.943   +09 39 21.69  .52122 1.4519 140.1 22.2  72d   3
2020 08 12 22  23 38 34.958   +09 39 54.76  .52108 1.4519 140.1 22.2  72d   3
2020 08 12 23  23 38 35.968   +09 40 27.79  .52094 1.4519 140.1 22.2  72d   3
2020 08 13 00  23 38 36.975   +09 41 00.79  .52080 1.4519 140.1 22.2  72d   3
2020 08 13 01  23 38 37.977   +09 41 33.75  .52066 1.4518 140.2 22.2  72d   3
2020 08 13 02  23 38 38.976   +09 42 06.68  .52053 1.4518 140.2 22.2  72d   3
2020 08 13 03  23 38 39.970   +09 42 39.58  .52039 1.4518 140.2 22.2  72d   3
2020 08 13 04  23 38 40.961   +09 43 12.44  .52025 1.4518 140.3 22.2  73d   3
2020 08 13 05  23 38 41.948   +09 43 45.27  .52011 1.4518 140.3 22.2  73d   3
2020 08 13 06  23 38 42.930   +09 44 18.07  .51998 1.4518 140.3 22.2  73d   3
2020 08 13 07  23 38 43.909   +09 44 50.83  .51984 1.4518 140.3 22.2  73d   3
2020 08 13 08  23 38 44.883   +09 45 23.55  .51971 1.4518 140.4 22.2  73d   3
2020 08 13 09  23 38 45.854   +09 45 56.25  .51957 1.4518 140.4 22.2  73d   3
2020 08 13 10  23 38 46.821   +09 46 28.90  .51943 1.4518 140.4 22.2  73d   3
2020 08 13 11  23 38 47.783   +09 47 01.53  .51930 1.4517 140.5 22.2  73d   3
2020 08 13 12  23 38 48.742   +09 47 34.12  .51916 1.4517 140.5 22.2  73d   3
2020 08 13 13  23 38 49.696   +09 48 06.67  .51903 1.4517 140.5 22.2  73d   3
2020 08 13 14  23 38 50.647   +09 48 39.19  .51889 1.4517 140.6 22.2  73d   3
2020 08 13 15  23 38 51.594   +09 49 11.68  .51876 1.4517 140.6 22.2  73d   3
2020 08 13 16  23 38 52.536   +09 49 44.13  .51862 1.4517 140.6 22.2  73d   3
2020 08 13 17  23 38 53.475   +09 50 16.55  .51849 1.4517 140.6 22.2  73d   3
2020 08 13 18  23 38 54.410   +09 50 48.93  .51835 1.4517 140.7 22.2  73d   3
2020 08 13 19  23 38 55.340   +09 51 21.28  .51822 1.4517 140.7 22.2  73d   3
2020 08 13 20  23 38 56.267   +09 51 53.59  .51808 1.4517 140.7 22.2  73d   3
2020 08 13 21  23 38 57.190   +09 52 25.87  .51795 1.4516 140.8 22.2  73d   3
2020 08 13 22  23 38 58.108   +09 52 58.11  .51781 1.4516 140.8 22.2  73d   3
2020 08 13 23  23 38 59.023   +09 53 30.32  .51768 1.4516 140.8 22.2  74d   3
2020 08 14 00  23 38 59.934   +09 54 02.49  .51755 1.4516 140.9 22.2  74d   3
2020 08 14 01  23 39 00.840   +09 54 34.63  .51741 1.4516 140.9 22.2  74d   3